[[{"header":{"parameterUnit":"m.s-1","parameterCategory":2,"la1":30.2991,"la2":30.254,"lo1":-89.0895,"lo2":-89.0444,"dy":0.0017,"dx":0.0017,"nx":28,"ny":28,"refTime":"2026-02-14T03:00:00:Z","depth":"0","parameterNumber":2,"parameterNumberName":"U-component_of_CURRENTS"},"data":[0,0,0,0,0,0,0,0,0,0,0,0,0,0,0,0,0,0,0,0,0,0,0,0,0,0,0,0,0,0,0,0,0,0,0,0,0,0,0,0,0,0,0,0,0,0,0,0,0,0,0,0,0,0,0,0,0,0,0.1311,0.1311,0,0.1335,0.1335,0.1335,0.1313,0.1312,0.1311,0.131,0.1306,0.1306,0.1307,0,0,0,0,0,0,0,0,0,0,0,0,0,0.126,0.1261,0.1311,0.1311,0.1311,0.1334,0.1335,0.1335,0.1313,0.1312,0.1311,0.131,0.1306,0.1306,0.1307,0,0,0,0,0,0,0,0,0,0,0,0,0,0.1282,0.1261,0.131,0.1304,0.1304,0.1334,0.1335,0.1335,0.1313,0.1312,0.1311,0.1309,0.1305,0.1306,0.1307,0.1336,0,0,0.131,0.131,0,0,0,0,0,0,0,0,0.128,0.1283,0.1305,0.1305,0.1304,0.132,0.1315,0.1334,0.1313,0.1308,0.131,0.1309,0.131,0.131,0.1316,0.1336,0.1336,0.131,0.1311,0.1311,0.1311,0,0,0,0,0,0,0,0.1279,0.1282,0.1319,0.1305,0.1305,0.1305,0.1307,0.1319,0.1314,0.1308,0.1307,0.1312,0.1309,0.1315,0.1316,0.1336,0.131,0.1311,0.1311,0.1312,0.1377,0.1378,0,0,0,0,0,0,0.1279,0.1281,0.1318,0.132,0.1291,0.1307,0.1309,0.1315,0.1314,0.1313,0.1313,0.1311,0.1314,0.1315,0.1315,0.135,0.1311,0.1312,0.1312,0.1376,0.1377,0.1378,0,0,0,0,0,0,0.1278,0.1283,0.1317,0.1302,0.1306,0.1309,0.1317,0.1317,0.1325,0.1318,0.1316,0.1322,0.1313,0.1314,0.1333,0.1349,0.1312,0.1313,0.1374,0.1376,0.1378,0.1419,0,0,0,0,0,0,0.1277,0.1282,0.1289,0.1302,0.1307,0.1343,0.1318,0.1318,0.133,0.1328,0.1326,0.1324,0.1312,0.1332,0.1334,0.135,0.1314,0.1373,0.1375,0.1377,0.1416,0.1422,0.1427,0,0,0,0,0,0.1275,0.1291,0.129,0.1294,0.1316,0.1344,0.1347,0.1344,0.1332,0.1345,0.1341,0.1324,0.1347,0.1334,0.1336,0.1353,0.1372,0.1374,0.1377,0.1414,0.1421,0.1427,0,0,0,0,0,0,0.1274,0.1291,0.1289,0.131,0.1328,0.134,0.1354,0.1352,0.1361,0.1357,0.1343,0.1343,0.1364,0.1358,0.1344,0.1379,0.1355,0.1358,0.1383,0.1389,0.1395,0.1396,0.1314,0,0,0,0,0,0.1278,0.1293,0.1311,0.1328,0.134,0.1349,0.136,0.1361,0.137,0.1372,0.1371,0.1371,0.1378,0.1383,0.1389,0.1414,0.1469,0.1425,0.1431,0.1435,0.1439,0.1512,0.1524,0.1387,0.1387,0.1387,0,0,0.1281,0.1294,0.1301,0.1329,0.1342,0.1367,0.1352,0.1376,0.1392,0.1372,0.1393,0.1392,0.139,0.1412,0.1421,0.1409,0.1522,0.1439,0.1443,0.1443,0.1516,0.1529,0.1541,0.1389,0.1388,0.1388,0,0,0.1299,0.131,0.1329,0.1349,0.1376,0.1386,0.1395,0.1415,0.1419,0.1445,0.143,0.144,0.1456,0.1454,0.1455,0.1498,0.1547,0.1502,0.1531,0.1602,0.1614,0.1625,0.1795,0.182,0.1505,0.1505,0.1505,0,0.1299,0.1327,0.134,0.1368,0.1385,0.1396,0.1423,0.1437,0.1458,0.1467,0.1456,0.1484,0.1474,0.1501,0.1509,0.1509,0.1595,0.1504,0.1611,0.1622,0.1632,0.1802,0.183,0.1507,0.1507,0.1507,0.1506,0,0.1332,0.1356,0.1373,0.1407,0.143,0.1458,0.148,0.1501,0.1506,0.1516,0.1545,0.1542,0.1558,0.1555,0.1542,0.1606,0.1666,0.1611,0.1595,0.1649,0.1826,0.1854,0.151,0.151,0.1509,0.1508,0,0,0.1325,0.1382,0.1387,0.1408,0.1452,0.1474,0.151,0.1544,0.1574,0.1585,0.1632,0.1622,0.1624,0.1626,0.1617,0.1664,0.1828,0.1673,0.1676,0.1846,0.2083,0.2118,0.2153,0.1796,0.1799,0.1801,0.2208,0,0.1344,0.1394,0.142,0.1467,0.1495,0.1522,0.1556,0.1587,0.1617,0.1669,0.1668,0.1708,0.1652,0.1677,0.1711,0.1799,0.1891,0.1729,0.2,0.201,0.2035,0.218,0.2135,0.249,0.2235,0.224,0.2243,0,0.1364,0.1396,0.1441,0.1496,0.1511,0.1539,0.16,0.1636,0.1703,0.173,0.1766,0.179,0.1872,0.1804,0.2,0.1909,0.2003,0.2065,0.2081,0.2107,0.2094,0.2377,0.255,0.2501,0.2286,0.2283,0.228,0,0.1347,0.1409,0.1442,0.1461,0.1526,0.1548,0.1584,0.1647,0.1702,0.1787,0.1861,0.1926,0.2019,0.2102,0.2226,0.2141,0.2472,0.237,0.2507,0.2516,0.2525,0.2527,0.2673,0.2515,0.2514,0.2513,0.2512,0,0.1355,0.1383,0.1434,0.1453,0.1498,0.1543,0.161,0.1651,0.1755,0.1851,0.1894,0.201,0.2094,0.2275,0.2335,0.2559,0.2579,0.2572,0.2618,0.2548,0.2546,0.2534,0.247,0.2528,0.2525,0.2522,0.2519,0,0.1335,0.137,0.1411,0.1471,0.1491,0.1522,0.163,0.1706,0.1789,0.1935,0.1982,0.2157,0.2391,0.2515,0.2727,0.2749,0.2867,0.2972,0.2938,0.2968,0.2973,0.2912,0.302,0.2912,0.3209,0.3212,0.3214,0,0.1334,0.1355,0.141,0.1458,0.1487,0.1549,0.162,0.1704,0.1802,0.2026,0.212,0.2383,0.2561,0.293,0.3025,0.3232,0.3054,0.3295,0.3062,0.3026,0.2993,0.2819,0.2703,0.3158,0.316,0.3161,0.3163,0,0.1357,0.137,0.1422,0.1501,0.1571,0.1634,0.1735,0.1801,0.1941,0.2075,0.2304,0.2467,0.2817,0.3013,0.3271,0.3346,0.3147,0.3333,0.3287,0.2974,0.2806,0.2705,0.2906,0.3177,0.3176,0.3175,0.3174,0.3173,0.1408,0.1447,0.1533,0.1594,0.1665,0.1735,0.1773,0.1897,0.2033,0.2209,0.2382,0.2597,0.2925,0.3263,0.3332,0.3428,0.328,0.3351,0.3307,0.3156,0.2934,0.321,0.3494,0.3495,0.3495,0.3495,0.3496,0,0.152,0.1575,0.1642,0.1723,0.1775,0.1791,0.1883,0.1913,0.2035,0.2225,0.2392,0.2737,0.3011,0.3229,0.3469,0.342,0.3203,0.3348,0.3076,0.2971,0.3263,0.3135,0.3361,0.3361,0.3361,0.3361,0.3361,0.3361,0.1621,0.1719,0.1727,0.1822,0.1852,0.1896,0.192,0.195,0.2049,0.2227,0.2394,0.256,0.2965,0.3401,0.3509,0.3424,0.3113,0.3059,0.2953,0.3156,0.3149,0.3143,0.3007,0.3203,0.3202,0.2544,0.2539,0.2536]},{"header":{"parameterUnit":"m.s-1","parameterCategory":2,"la1":30.2991,"la2":30.254,"lo1":-89.0895,"lo2":-89.0444,"dy":0.0017,"dx":0.0017,"nx":28,"ny":28,"refTime":"2026-02-14T03:00:00:Z","depth":"0","parameterNumber":3,"parameterNumberName":"V-component_of_CURRENTS"},"data":[0,0,0,0,0,0,0,0,0,0,0,0,0,0,0,0,0,0,0,0,0,0,0,0,0,0,0,0,0,0,0,0,0,0,0,0,0,0,0,0,0,0,0,0,0,0,0,0,0,0,0,0,0,0,0,0,0,0,-0.0263,-0.0263,0,-0.029,-0.029,-0.0291,-0.0301,-0.0301,-0.0301,-0.0301,-0.0329,-0.033,-0.0331,0,0,0,0,0,0,0,0,0,0,0,0,0,-0.0209,-0.021,-0.0263,-0.0263,-0.0264,-0.029,-0.029,-0.0291,-0.0301,-0.0301,-0.0301,-0.0301,-0.0329,-0.033,-0.0331,0,0,0,0,0,0,0,0,0,0,0,0,0,-0.0233,-0.021,-0.0263,-0.0272,-0.0273,-0.029,-0.029,-0.0291,-0.0301,-0.0301,-0.0301,-0.0301,-0.0328,-0.033,-0.0331,-0.0339,0,0,-0.0334,-0.0335,0,0,0,0,0,0,0,0,-0.0232,-0.0235,-0.027,-0.0272,-0.0273,-0.0292,-0.0281,-0.0307,-0.0301,-0.0291,-0.0301,-0.0301,-0.0317,-0.0319,-0.0324,-0.0341,-0.0342,-0.0334,-0.0335,-0.0336,-0.0336,0,0,0,0,0,0,0,-0.023,-0.0234,-0.0273,-0.0271,-0.0272,-0.0271,-0.0275,-0.0286,-0.0304,-0.0291,-0.0292,-0.0296,-0.0318,-0.0323,-0.0325,-0.0342,-0.0334,-0.0335,-0.0336,-0.0337,-0.0384,-0.0384,0,0,0,0,0,0,-0.0228,-0.0233,-0.0272,-0.0274,-0.0252,-0.0272,-0.0276,-0.0286,-0.0304,-0.0306,-0.0296,-0.0296,-0.0321,-0.0323,-0.0326,-0.0345,-0.0336,-0.0337,-0.0337,-0.0383,-0.0384,-0.0385,0,0,0,0,0,0,-0.0227,-0.0232,-0.0271,-0.0254,-0.0259,-0.0273,-0.0284,-0.0287,-0.0292,-0.0307,-0.031,-0.0298,-0.0321,-0.0324,-0.0339,-0.0346,-0.0337,-0.0338,-0.0383,-0.0384,-0.0384,-0.0379,0,0,0,0,0,0,-0.0226,-0.0231,-0.0234,-0.0254,-0.026,-0.0276,-0.0284,-0.0287,-0.0294,-0.0295,-0.031,-0.0313,-0.0321,-0.0338,-0.0341,-0.0347,-0.0339,-0.0382,-0.0383,-0.0384,-0.0378,-0.0379,-0.038,0,0,0,0,0,-0.0224,-0.0221,-0.0234,-0.0238,-0.0264,-0.0276,-0.0279,-0.0289,-0.0294,-0.0294,-0.031,-0.0312,-0.0346,-0.0339,-0.0342,-0.035,-0.0381,-0.0383,-0.0384,-0.0378,-0.0379,-0.038,0,0,0,0,0,0,-0.0189,-0.0223,-0.0237,-0.0243,-0.0259,-0.0278,-0.0276,-0.0288,-0.03,-0.0301,-0.0318,-0.0321,-0.0338,-0.0346,-0.0337,-0.0368,-0.0365,-0.0367,-0.0359,-0.036,-0.0361,-0.0349,-0.034,0,0,0,0,0,-0.0187,-0.0199,-0.0227,-0.023,-0.0239,-0.026,-0.0265,-0.0275,-0.029,-0.0296,-0.031,-0.0327,-0.0347,-0.0354,-0.0369,-0.0383,-0.0362,-0.0391,-0.0392,-0.0393,-0.0386,-0.0377,-0.0376,-0.0389,-0.0389,-0.0389,0,0,-0.0172,-0.0193,-0.0198,-0.0225,-0.0237,-0.0246,-0.0262,-0.0269,-0.0277,-0.0297,-0.0308,-0.0329,-0.0352,-0.0369,-0.0378,-0.0376,-0.0372,-0.0394,-0.0395,-0.0388,-0.0378,-0.0376,-0.0375,-0.039,-0.0389,-0.0389,0,0,-0.0147,-0.017,-0.0173,-0.0189,-0.0212,-0.0229,-0.0231,-0.0255,-0.0267,-0.0284,-0.0305,-0.0331,-0.0351,-0.0374,-0.0388,-0.0403,-0.0378,-0.0409,-0.0403,-0.0393,-0.0392,-0.039,-0.0331,-0.0324,-0.0409,-0.0409,-0.0409,0,-0.0125,-0.0142,-0.0172,-0.0179,-0.0189,-0.0221,-0.0223,-0.024,-0.0266,-0.0275,-0.0283,-0.0328,-0.0354,-0.038,-0.0394,-0.0405,-0.0375,-0.0395,-0.0393,-0.0391,-0.0389,-0.0329,-0.0322,-0.0408,-0.0408,-0.0408,-0.0408,0,-0.0109,-0.0121,-0.0121,-0.0149,-0.0162,-0.0167,-0.02,-0.0214,-0.0235,-0.0254,-0.0281,-0.0319,-0.0339,-0.0364,-0.0387,-0.0398,-0.0369,-0.0394,-0.0385,-0.0387,-0.0324,-0.0316,-0.0408,-0.0408,-0.0408,-0.0408,0,0,-0.006,-0.0102,-0.0102,-0.0111,-0.0148,-0.0155,-0.0174,-0.0199,-0.0194,-0.0238,-0.0225,-0.0303,-0.0317,-0.0335,-0.0368,-0.0379,-0.0348,-0.0382,-0.0382,-0.0312,-0.028,-0.0238,-0.0225,-0.0368,-0.0367,-0.0367,-0.0228,0,-0.0037,-0.0046,-0.0076,-0.0078,-0.0086,-0.0125,-0.0132,-0.016,-0.0176,-0.0167,-0.0224,-0.0217,-0.0306,-0.0295,-0.0334,-0.0322,-0.0332,-0.038,-0.0297,-0.0293,-0.0249,-0.0218,-0.0256,-0.0134,-0.022,-0.0219,-0.0218,0,-0.0014,-0.0026,-0.0028,-0.0049,-0.0054,-0.0056,-0.0069,-0.0076,-0.0088,-0.009,-0.0117,-0.0132,-0.015,-0.0216,-0.0229,-0.0248,-0.0274,-0.0284,-0.0279,-0.0238,-0.0239,-0.0154,-0.0117,-0.0336,-0.0206,-0.0207,-0.0207,0,0.0028,0.0009,0.0007,-0.0002,-0.0029,-0.003,-0.0036,-0.0052,-0.0011,-0.0014,0.0057,-0.0019,0.0043,-0.0045,-0.0075,-0.014,-0.0052,-0.014,-0.0132,-0.0127,-0.0142,-0.014,-0.0302,-0.0168,-0.0169,-0.0169,-0.017,0,0.0056,0.0059,0.003,0.003,0.0054,0.0017,0.0068,0.0049,0.0101,0.0211,0.012,0.0234,0.0093,0.0126,0.0008,0.0009,0.0018,-0.0108,-0.0092,-0.0138,-0.0137,-0.0314,-0.0433,-0.0164,-0.0165,-0.0166,-0.0167,0,0.0106,0.0077,0.0089,0.0071,0.0075,0.01,0.0171,0.0248,0.026,0.0422,0.0455,0.0486,0.0535,0.0406,0.0345,0.0196,0.003,0.0119,0.0105,0.0114,-0.0138,-0.0252,-0.0323,-0.0429,0.0134,0.0136,0.0137,0,0.0136,0.014,0.0141,0.0193,0.0195,0.0241,0.032,0.0329,0.0449,0.0611,0.0741,0.0821,0.0934,0.0858,0.0586,0.0413,0.017,0.0246,0.0067,-0.0136,-0.0253,-0.0341,-0.0435,0.0068,0.0069,0.007,0.007,0,0.0228,0.0222,0.0254,0.0348,0.0429,0.0508,0.0619,0.0725,0.0814,0.0964,0.1205,0.1307,0.1223,0.1052,0.0779,0.06,0.0066,0.0255,0.0025,-0.0328,-0.0414,-0.0513,-0.0005,0.0076,0.0076,0.0075,0.0075,0.0075,0.0354,0.041,0.0483,0.0569,0.0666,0.0811,0.0911,0.1069,0.1272,0.1511,0.1571,0.1759,0.1425,0.1048,0.0757,0.0154,0.0148,-0.0069,-0.0182,-0.0244,-0.04,0.0155,0.0253,0.0253,0.0253,0.0254,0.0254,0,0.0562,0.063,0.0726,0.0859,0.0996,0.0975,0.1166,0.1292,0.1559,0.1768,0.1963,0.1938,0.1482,0.096,0.0168,-0.0239,-0.0451,-0.0465,-0.0669,-0.0742,-0.0264,-0.0328,-0.0329,-0.0329,-0.0329,-0.0329,-0.0329,-0.0328,0.0717,0.087,0.0896,0.1154,0.1231,0.1418,0.1517,0.1684,0.1842,0.2112,0.2232,0.2307,0.1936,0.0517,-0.0495,-0.0725,-0.1072,-0.1083,-0.1229,-0.0998,-0.0973,-0.095,-0.1043,-0.1194,-0.1195,-0.1712,-0.1717,-0.1721]}],[{"header":{"parameterUnit":"m.s-1","parameterCategory":2,"la1":30.2991,"la2":30.254,"lo1":-89.0895,"lo2":-89.0444,"dy":0.0017,"dx":0.0017,"nx":28,"ny":28,"refTime":"2026-02-14T03:00:00:Z","depth":"2","parameterNumber":2,"parameterNumberName":"U-component_of_CURRENTS"},"data":[0,0,0,0,0,0,0,0,0,0,0,0,0,0,0,0,0,0,0,0,0,0,0,0,0,0,0,0,0,0,0,0,0,0,0,0,0,0,0,0,0,0,0,0,0,0,0,0,0,0,0,0,0,0,0,0,0,0,0.1197,0.1198,0,0.124,0.124,0.1241,0.125,0.1249,0.1249,0.1249,0.1257,0.1258,0.1258,0,0,0,0,0,0,0,0,0,0,0,0,0,0.1139,0.114,0.1197,0.1198,0.1198,0.124,0.124,0.1241,0.125,0.1249,0.1249,0.1249,0.1257,0.1258,0.1258,0,0,0,0,0,0,0,0,0,0,0,0,0,0.1171,0.114,0.1197,0.1208,0.1209,0.124,0.124,0.1241,0.125,0.1249,0.1249,0.1248,0.1257,0.1257,0.1258,0.1272,0,0,0.1261,0.1261,0,0,0,0,0,0,0,0,0.1169,0.1173,0.1206,0.1207,0.1209,0.1239,0.1223,0.125,0.125,0.1234,0.1249,0.1248,0.1248,0.125,0.1259,0.1272,0.1273,0.1261,0.1261,0.1261,0.1262,0,0,0,0,0,0,0,0.1167,0.1171,0.1214,0.1206,0.1208,0.1216,0.122,0.1228,0.1243,0.1236,0.1236,0.1241,0.1249,0.1258,0.1259,0.1273,0.1261,0.1261,0.1262,0.1262,0.1324,0.1325,0,0,0,0,0,0,0.1162,0.1169,0.1213,0.1215,0.1188,0.1217,0.1221,0.123,0.1243,0.1245,0.1242,0.1242,0.1257,0.1258,0.1259,0.13,0.1261,0.1262,0.1263,0.1322,0.1324,0.1325,0,0,0,0,0,0,0.116,0.1165,0.1211,0.1193,0.1199,0.1218,0.1228,0.1231,0.1247,0.1248,0.125,0.1255,0.1257,0.1258,0.1283,0.1299,0.1262,0.1263,0.1321,0.1323,0.1324,0.1366,0,0,0,0,0,0,0.1159,0.1165,0.1172,0.1193,0.12,0.1242,0.1228,0.1232,0.125,0.1251,0.126,0.126,0.1257,0.1283,0.1284,0.13,0.1264,0.1319,0.1322,0.1324,0.1363,0.1369,0.1374,0,0,0,0,0,0.1156,0.117,0.1172,0.1177,0.1208,0.1243,0.1249,0.126,0.1251,0.127,0.1276,0.126,0.1297,0.1285,0.1286,0.1302,0.1318,0.1321,0.1324,0.1361,0.1368,0.1374,0,0,0,0,0,0,0.1149,0.1172,0.1175,0.1195,0.1222,0.1245,0.126,0.1266,0.1286,0.1285,0.1279,0.1281,0.1307,0.1303,0.1288,0.1327,0.1304,0.1307,0.1332,0.1338,0.1344,0.1346,0.1264,0,0,0,0,0,0.1151,0.1165,0.1192,0.1209,0.1222,0.1242,0.1256,0.1269,0.1287,0.1295,0.1303,0.131,0.1319,0.1327,0.1337,0.1361,0.1373,0.1372,0.1378,0.1382,0.1386,0.142,0.1429,0.1334,0.1334,0.1334,0,0,0.115,0.1167,0.1174,0.1208,0.1227,0.126,0.125,0.1281,0.1307,0.1293,0.1329,0.1331,0.1331,0.1359,0.1369,0.1357,0.1421,0.1386,0.1389,0.1391,0.1424,0.1433,0.1442,0.1336,0.1335,0.1335,0,0,0.1167,0.1176,0.1198,0.1226,0.1261,0.1277,0.1289,0.1322,0.1334,0.1371,0.1363,0.1378,0.1399,0.1403,0.1405,0.1447,0.1448,0.1449,0.1479,0.1512,0.152,0.1527,0.1574,0.1585,0.1451,0.1452,0.1452,0,0.1168,0.1199,0.1212,0.1248,0.1269,0.1287,0.1322,0.1343,0.1382,0.1394,0.1389,0.1423,0.1419,0.1446,0.1459,0.1458,0.1484,0.1452,0.1519,0.1526,0.1533,0.1579,0.1591,0.1454,0.1454,0.1453,0.1453,0,0.1206,0.1234,0.1252,0.1299,0.1326,0.136,0.1391,0.1419,0.143,0.1448,0.1481,0.1484,0.1503,0.1503,0.1492,0.1535,0.1543,0.1522,0.1501,0.1545,0.1591,0.1603,0.1457,0.1456,0.1456,0.1455,0,0,0.1197,0.1264,0.1272,0.1297,0.1354,0.1378,0.1424,0.1466,0.1492,0.1522,0.1556,0.1567,0.1568,0.157,0.1562,0.1585,0.1653,0.1577,0.1577,0.1622,0.1749,0.1753,0.1766,0.1648,0.165,0.1651,0.1769,0,0.1224,0.1287,0.1317,0.1375,0.1406,0.1438,0.1476,0.1515,0.1544,0.1585,0.1589,0.162,0.1594,0.1606,0.1627,0.1645,0.1683,0.1625,0.1701,0.1703,0.17,0.1778,0.1648,0.1742,0.178,0.1782,0.1783,0,0.125,0.1288,0.1346,0.1403,0.1419,0.1455,0.1509,0.155,0.1607,0.163,0.1664,0.1677,0.1718,0.1685,0.1754,0.1722,0.1744,0.1755,0.176,0.1754,0.1728,0.1701,0.1761,0.1802,0.1801,0.1799,0.1798,0,0.1226,0.1304,0.1343,0.1367,0.1439,0.1462,0.1498,0.1558,0.1598,0.1664,0.1704,0.1747,0.1784,0.1812,0.1843,0.1808,0.1925,0.1876,0.1906,0.1907,0.1805,0.1794,0.1934,0.1934,0.1934,0.1934,0.1933,0,0.1234,0.1265,0.1332,0.1354,0.1396,0.145,0.1498,0.1544,0.1619,0.1673,0.1722,0.1783,0.1819,0.1885,0.1891,0.1953,0.1971,0.1937,0.1944,0.1819,0.1808,0.1854,0.1843,0.1938,0.1937,0.1936,0.1936,0,0.1199,0.1249,0.1292,0.1363,0.1385,0.1411,0.1494,0.1533,0.1613,0.169,0.1719,0.1835,0.1928,0.1971,0.204,0.2027,0.207,0.2085,0.1949,0.1938,0.2017,0.2007,0.213,0.2131,0.2133,0.2133,0.2134,0,0.1186,0.1206,0.1279,0.1304,0.1334,0.1384,0.1421,0.1511,0.156,0.172,0.1756,0.1895,0.1968,0.2095,0.2116,0.2161,0.2145,0.2056,0.1953,0.2046,0.2041,0.2029,0.2017,0.1844,0.1842,0.1841,0.1839,0,0.1152,0.1177,0.1212,0.1261,0.13,0.1349,0.141,0.1454,0.157,0.1643,0.1777,0.186,0.2015,0.2028,0.2104,0.2095,0.2033,0.2031,0.2179,0.1813,0.1785,0.1776,0.1773,0.1827,0.1828,0.1829,0.183,0.183,0.1115,0.1127,0.1173,0.1215,0.126,0.1307,0.1328,0.1396,0.147,0.1574,0.1714,0.1795,0.1888,0.1945,0.1929,0.1926,0.2037,0.1936,0.1936,0.1938,0.1883,0.1858,0.1905,0.1907,0.1908,0.1909,0.191,0,0.1067,0.1092,0.1126,0.1174,0.1196,0.1246,0.1315,0.1314,0.1361,0.1492,0.1582,0.1554,0.1619,0.1702,0.1699,0.173,0.166,0.1651,0.1543,0.156,0.1573,0.1493,0.1415,0.1413,0.1411,0.1409,0,0,0.1042,0.1052,0.1075,0.1095,0.1133,0.1147,0.1176,0.1174,0.1241,0.1276,0.1339,0.152,0.1657,0.1495,0.1514,0.1463,0.1477,0.1409,0.1819,0.1708,0.1718,0.1769,0.1671,0,0,0,0,0]},{"header":{"parameterUnit":"m.s-1","parameterCategory":2,"la1":30.2991,"la2":30.254,"lo1":-89.0895,"lo2":-89.0444,"dy":0.0017,"dx":0.0017,"nx":28,"ny":28,"refTime":"2026-02-14T03:00:00:Z","depth":"2","parameterNumber":3,"parameterNumberName":"V-component_of_CURRENTS"},"data":[0,0,0,0,0,0,0,0,0,0,0,0,0,0,0,0,0,0,0,0,0,0,0,0,0,0,0,0,0,0,0,0,0,0,0,0,0,0,0,0,0,0,0,0,0,0,0,0,0,0,0,0,0,0,0,0,0,0,-0.0307,-0.0307,0,-0.0332,-0.0332,-0.0333,-0.0368,-0.0368,-0.0368,-0.0369,-0.0415,-0.0416,-0.0417,0,0,0,0,0,0,0,0,0,0,0,0,0,-0.0286,-0.0286,-0.0307,-0.0307,-0.0307,-0.0332,-0.0332,-0.0333,-0.0368,-0.0368,-0.0369,-0.0369,-0.0415,-0.0416,-0.0417,0,0,0,0,0,0,0,0,0,0,0,0,0,-0.0303,-0.0286,-0.0307,-0.0326,-0.0328,-0.0332,-0.0332,-0.0333,-0.0367,-0.0368,-0.0369,-0.0369,-0.0414,-0.0416,-0.0417,-0.0412,0,0,-0.0421,-0.0421,0,0,0,0,0,0,0,0,-0.0302,-0.0304,-0.0323,-0.0325,-0.0327,-0.0346,-0.0342,-0.036,-0.0367,-0.0354,-0.0369,-0.037,-0.0392,-0.0395,-0.0401,-0.0414,-0.0416,-0.0421,-0.0422,-0.0422,-0.0422,0,0,0,0,0,0,0,-0.0301,-0.0303,-0.0319,-0.0323,-0.0326,-0.0332,-0.0336,-0.0345,-0.0371,-0.0356,-0.0358,-0.0357,-0.0394,-0.0399,-0.0402,-0.0416,-0.0421,-0.0422,-0.0423,-0.0423,-0.0467,-0.0468,0,0,0,0,0,0,-0.0293,-0.0302,-0.0318,-0.0319,-0.0314,-0.0332,-0.0336,-0.0341,-0.0371,-0.0375,-0.0357,-0.0359,-0.0397,-0.0401,-0.0404,-0.0429,-0.0422,-0.0423,-0.0424,-0.0467,-0.0467,-0.0468,0,0,0,0,0,0,-0.0293,-0.0295,-0.0317,-0.0309,-0.0312,-0.0331,-0.0337,-0.0341,-0.0352,-0.0371,-0.0377,-0.0364,-0.0398,-0.0402,-0.0425,-0.043,-0.0424,-0.0425,-0.0466,-0.0467,-0.0468,-0.046,0,0,0,0,0,0,-0.0292,-0.0295,-0.0295,-0.0309,-0.0313,-0.0321,-0.0336,-0.0341,-0.0349,-0.0353,-0.0379,-0.0384,-0.0399,-0.0423,-0.0426,-0.0432,-0.0426,-0.0466,-0.0467,-0.0467,-0.046,-0.0461,-0.0461,0,0,0,0,0,-0.0292,-0.0285,-0.0296,-0.0297,-0.0313,-0.0321,-0.0323,-0.034,-0.0349,-0.0353,-0.0378,-0.0383,-0.0431,-0.0425,-0.0428,-0.0434,-0.0465,-0.0466,-0.0467,-0.046,-0.046,-0.0461,0,0,0,0,0,0,-0.0273,-0.0289,-0.03,-0.0299,-0.0311,-0.0326,-0.0325,-0.0339,-0.036,-0.0365,-0.0388,-0.0394,-0.0417,-0.0426,-0.0419,-0.045,-0.0449,-0.0451,-0.0442,-0.0443,-0.0443,-0.0433,-0.0427,0,0,0,0,0,-0.0269,-0.0272,-0.0289,-0.0288,-0.0292,-0.031,-0.0315,-0.0329,-0.0347,-0.0357,-0.0379,-0.0402,-0.0421,-0.0433,-0.0451,-0.0464,-0.0473,-0.0471,-0.0472,-0.0472,-0.0467,-0.0482,-0.0483,-0.0471,-0.0471,-0.0471,0,0,-0.026,-0.0269,-0.027,-0.0284,-0.0294,-0.03,-0.0315,-0.0322,-0.0332,-0.0358,-0.0381,-0.0404,-0.0426,-0.0448,-0.0458,-0.0457,-0.0483,-0.0473,-0.0473,-0.0468,-0.0483,-0.0484,-0.0485,-0.0472,-0.0472,-0.0471,0,0,-0.0241,-0.0252,-0.0251,-0.0262,-0.0276,-0.0289,-0.0292,-0.0314,-0.0329,-0.0351,-0.0377,-0.0404,-0.0429,-0.0453,-0.0465,-0.0477,-0.0486,-0.0483,-0.0477,-0.0491,-0.0492,-0.0493,-0.0516,-0.0519,-0.0483,-0.0483,-0.0483,0,-0.023,-0.0232,-0.025,-0.0253,-0.0257,-0.0284,-0.0284,-0.0303,-0.0334,-0.0344,-0.0357,-0.0407,-0.0431,-0.0456,-0.0468,-0.0478,-0.0488,-0.0471,-0.0491,-0.0492,-0.0493,-0.0516,-0.0519,-0.0482,-0.0482,-0.0482,-0.0482,0,-0.0214,-0.0218,-0.0215,-0.0233,-0.0241,-0.0242,-0.027,-0.0287,-0.0308,-0.033,-0.0361,-0.0399,-0.0426,-0.0444,-0.0461,-0.0482,-0.049,-0.0489,-0.0486,-0.0493,-0.0518,-0.0522,-0.0482,-0.0482,-0.0482,-0.0482,0,0,-0.0182,-0.02,-0.02,-0.0202,-0.0229,-0.023,-0.025,-0.0271,-0.0275,-0.0321,-0.0329,-0.0384,-0.0406,-0.0421,-0.0451,-0.0472,-0.05,-0.0483,-0.0484,-0.0501,-0.0537,-0.0523,-0.0526,-0.05,-0.05,-0.0501,-0.0556,0,-0.0164,-0.016,-0.0178,-0.0175,-0.0172,-0.0203,-0.0214,-0.024,-0.0264,-0.0283,-0.0332,-0.0352,-0.0396,-0.0406,-0.0438,-0.0479,-0.0507,-0.0486,-0.0532,-0.0534,-0.0516,-0.0529,-0.0501,-0.0546,-0.0559,-0.056,-0.056,0,-0.0144,-0.0143,-0.0134,-0.0139,-0.014,-0.0147,-0.0159,-0.0174,-0.0213,-0.023,-0.0268,-0.0301,-0.0353,-0.0377,-0.0461,-0.0443,-0.0491,-0.0526,-0.0529,-0.0517,-0.0526,-0.0539,-0.0551,-0.0566,-0.0566,-0.0565,-0.0565,0,-0.0105,-0.011,-0.0098,-0.0102,-0.0117,-0.0119,-0.0129,-0.0159,-0.0158,-0.0195,-0.0191,-0.0263,-0.028,-0.0357,-0.0441,-0.0448,-0.052,-0.0537,-0.0575,-0.0575,-0.0561,-0.0558,-0.059,-0.059,-0.059,-0.059,-0.059,0,-0.0076,-0.0066,-0.0078,-0.0072,-0.0055,-0.0081,-0.0067,-0.0088,-0.0102,-0.0088,-0.016,-0.0151,-0.0271,-0.0327,-0.042,-0.0505,-0.0507,-0.0575,-0.0585,-0.0559,-0.0556,-0.0577,-0.0575,-0.0592,-0.0591,-0.0591,-0.0591,0,-0.0038,-0.0047,-0.0032,-0.0038,-0.0036,-0.0027,-0.0022,-0.001,-0.003,-0.001,-0.0015,-0.0068,-0.0137,-0.026,-0.0374,-0.0459,-0.0552,-0.058,-0.0547,-0.0551,-0.0609,-0.0606,-0.0638,-0.0638,-0.0638,-0.0638,-0.0637,0,-0.002,-0.0009,-0.0001,0.0013,0.0011,0.0025,0.0039,0.0025,0.0048,0.0053,0.0075,0.0019,-0.0001,-0.0173,-0.0336,-0.0497,-0.0527,-0.0573,-0.0585,-0.0605,-0.0613,-0.061,-0.0607,-0.0576,-0.0575,-0.0575,-0.0574,0,0.001,0.0011,0.0023,0.0055,0.0074,0.0107,0.013,0.0164,0.0164,0.0196,0.0238,0.0226,0.0064,-0.0077,-0.03,-0.0412,-0.055,-0.0568,-0.0594,-0.0558,-0.0548,-0.0555,-0.0554,-0.057,-0.057,-0.0571,-0.0571,-0.0571,0.0027,0.0042,0.0056,0.0091,0.0123,0.0183,0.0229,0.0275,0.0336,0.0398,0.0371,0.0378,0.0178,-0.0074,-0.0279,-0.0495,-0.0505,-0.0578,-0.0579,-0.0581,-0.0554,-0.0543,-0.056,-0.0561,-0.0561,-0.0561,-0.0561,0,0.0035,0.0055,0.0091,0.0133,0.0186,0.0202,0.0286,0.0344,0.0443,0.0509,0.0548,0.0406,0.0231,0.0007,-0.0302,-0.05,-0.0527,-0.0558,-0.055,-0.0553,-0.0556,-0.0527,-0.0527,-0.0528,-0.0528,-0.0528,0,0,0.0034,0.0065,0.0089,0.0172,0.022,0.031,0.0374,0.0468,0.0542,0.063,0.0659,0.0613,0.0334,0.0123,-0.0161,-0.0335,-0.0396,-0.0371,-0.0379,-0.034,-0.0339,-0.0551,-0.0508,0,0,0,0,0]}],[{"header":{"parameterUnit":"m.s-1","parameterCategory":2,"la1":30.2991,"la2":30.254,"lo1":-89.0895,"lo2":-89.0444,"dy":0.0017,"dx":0.0017,"nx":28,"ny":28,"refTime":"2026-02-14T03:00:00:Z","depth":"4","parameterNumber":2,"parameterNumberName":"U-component_of_CURRENTS"},"data":[0,0,0,0,0,0,0,0,0,0,0,0,0,0,0,0,0,0,0,0,0,0,0,0,0,0,0,0,0,0,0,0,0,0,0,0,0,0,0,0,0,0,0,0,0,0,0,0,0,0,0,0,0,0,0,0,0,0,0.0838,0.0839,0,0.087,0.087,0.0871,0.0894,0.0895,0.0895,0.0896,0.0925,0.0926,0.0926,0,0,0,0,0,0,0,0,0,0,0,0,0,0.0758,0.076,0.0838,0.0839,0.084,0.087,0.087,0.0871,0.0894,0.0895,0.0895,0.0896,0.0925,0.0926,0.0926,0,0,0,0,0,0,0,0,0,0,0,0,0,0.0789,0.076,0.0838,0.0857,0.086,0.087,0.087,0.0871,0.0894,0.0895,0.0896,0.0896,0.0925,0.0926,0.0926,0.0914,0,0,0.0928,0.0928,0,0,0,0,0,0,0,0,0.0787,0.0792,0.0854,0.0856,0.0859,0.0882,0.0853,0.0886,0.0894,0.0878,0.0896,0.0897,0.0912,0.0914,0.0914,0.0916,0.0917,0.0928,0.0928,0.0928,0.0928,0,0,0,0,0,0,0,0.0785,0.079,0.0848,0.0855,0.0858,0.0851,0.0856,0.0859,0.0888,0.0879,0.0882,0.089,0.0913,0.0913,0.0915,0.0918,0.0928,0.0928,0.0928,0.0929,0.0978,0.0979,0,0,0,0,0,0,0.0789,0.0789,0.0847,0.0849,0.0828,0.0852,0.0858,0.0871,0.0888,0.0892,0.0889,0.0891,0.0912,0.0914,0.0916,0.0968,0.0928,0.0929,0.0929,0.0977,0.0979,0.098,0,0,0,0,0,0,0.0787,0.0794,0.0846,0.0821,0.0828,0.0854,0.0868,0.0871,0.0891,0.0896,0.09,0.0908,0.0913,0.0915,0.094,0.0967,0.0929,0.0929,0.0976,0.0978,0.0979,0.103,0,0,0,0,0,0,0.0785,0.0793,0.0809,0.0822,0.083,0.0866,0.0867,0.0872,0.0895,0.0898,0.0913,0.0915,0.0913,0.0939,0.094,0.0967,0.093,0.0975,0.0977,0.0979,0.1027,0.1033,0.1038,0,0,0,0,0,0.0782,0.0799,0.0809,0.0817,0.0849,0.0867,0.087,0.0888,0.0896,0.0907,0.0921,0.0916,0.0952,0.094,0.0941,0.0969,0.0974,0.0976,0.0979,0.1025,0.1032,0.1038,0,0,0,0,0,0,0.0771,0.0803,0.0815,0.0842,0.086,0.0872,0.0888,0.0897,0.0916,0.0924,0.0926,0.093,0.0961,0.0956,0.0943,0.0989,0.0963,0.0966,0.0998,0.1005,0.101,0.1004,0.093,0,0,0,0,0,0.0776,0.08,0.0824,0.0846,0.0859,0.0876,0.0888,0.09,0.0916,0.0926,0.0937,0.0951,0.0967,0.098,0.0987,0.1011,0.1011,0.103,0.1035,0.104,0.1036,0.1063,0.1071,0.0987,0.0987,0.0987,0,0,0.0777,0.08,0.0813,0.0846,0.0863,0.0879,0.0885,0.091,0.0927,0.0926,0.0956,0.0969,0.0977,0.1006,0.102,0.1009,0.1068,0.1043,0.1047,0.104,0.1067,0.1075,0.1082,0.0989,0.0989,0.0988,0,0,0.0783,0.0814,0.0832,0.085,0.0882,0.0893,0.0905,0.0929,0.0948,0.0976,0.0983,0.1013,0.1033,0.1048,0.1056,0.1096,0.1094,0.1104,0.1131,0.1159,0.1166,0.1172,0.1197,0.1205,0.111,0.111,0.111,0,0.0782,0.081,0.0839,0.0858,0.0874,0.0902,0.0917,0.0939,0.0968,0.0988,0.0994,0.1043,0.1051,0.109,0.1108,0.1109,0.1123,0.1106,0.1166,0.1172,0.1178,0.1202,0.121,0.1113,0.1112,0.1112,0.1112,0,0.0795,0.0821,0.0834,0.0869,0.0889,0.091,0.0942,0.0971,0.0999,0.1019,0.1071,0.109,0.1123,0.1134,0.1134,0.1182,0.118,0.1169,0.1149,0.1189,0.1212,0.1219,0.1117,0.1116,0.1115,0.1114,0,0,0.0776,0.0832,0.0836,0.0855,0.0897,0.0914,0.0955,0.0996,0.103,0.1069,0.1112,0.1151,0.1175,0.1185,0.1199,0.1221,0.1279,0.1216,0.1216,0.1241,0.1346,0.1288,0.129,0.1284,0.1285,0.1286,0.1351,0,0.0774,0.0807,0.0838,0.0869,0.0887,0.0931,0.0962,0.1007,0.1053,0.1104,0.1145,0.1189,0.1192,0.1222,0.1249,0.1271,0.1299,0.1262,0.1302,0.1303,0.1247,0.1297,0.129,0.1356,0.1358,0.1359,0.136,0,0.0767,0.0793,0.0821,0.0874,0.0887,0.0915,0.0982,0.1018,0.1094,0.1133,0.1195,0.1228,0.1287,0.1275,0.1343,0.1324,0.134,0.1348,0.1351,0.1279,0.1259,0.1304,0.1373,0.1372,0.1371,0.137,0.137,0,0.0728,0.0779,0.0804,0.082,0.0882,0.0915,0.0957,0.1029,0.1069,0.1163,0.1206,0.1276,0.1326,0.1357,0.1398,0.1378,0.1459,0.1432,0.1394,0.1391,0.14,0.1392,0.1471,0.1471,0.1471,0.1471,0.147,0,0.0703,0.0724,0.0794,0.0806,0.0844,0.0901,0.0957,0.1012,0.1093,0.1148,0.1226,0.1281,0.1349,0.1408,0.1422,0.1443,0.1489,0.1405,0.1405,0.1421,0.1415,0.1406,0.1397,0.1473,0.1472,0.1472,0.1472,0,0.0651,0.0695,0.0727,0.08,0.0826,0.0857,0.0949,0.0989,0.1078,0.1157,0.1191,0.1301,0.1384,0.1442,0.1503,0.1475,0.1494,0.1486,0.1517,0.1516,0.1398,0.1392,0.1441,0.144,0.1439,0.1438,0.1437,0,0.0628,0.0637,0.0711,0.0735,0.0773,0.0834,0.0872,0.0968,0.1017,0.1164,0.1193,0.1312,0.1381,0.1425,0.1485,0.1521,0.1501,0.1498,0.1425,0.1401,0.1397,0.1392,0.1387,0.1435,0.1434,0.1434,0.1434,0,0.0576,0.0607,0.0635,0.0684,0.073,0.0777,0.0851,0.0877,0.0999,0.1086,0.1178,0.124,0.1335,0.1392,0.1439,0.1454,0.149,0.1485,0.1486,0.1416,0.1394,0.1389,0.1386,0.1429,0.143,0.143,0.1431,0,0.0537,0.0544,0.0586,0.0627,0.068,0.0719,0.0763,0.0836,0.0894,0.1057,0.109,0.1224,0.1326,0.1361,0.1403,0.1421,0.139,0.1331,0.134,0.1346,0.1285,0.124,0.1237,0,0,0,0,0,0.0495,0.0501,0.0529,0.0575,0.0628,0.0664,0.0748,0.0798,0.0917,0.0954,0.1021,0.111,0.1197,0.1262,0.1262,0.1358,0.1389,0.1351,0.1322,0.1406,0.1411,0.1349,0,0,0,0,0,0,0.0466,0.0487,0.0505,0.0527,0.0553,0.0606,0.0659,0.0737,0.0766,0.0891,0.0942,0.1041,0.1135,0.1186,0.124,0.126,0.122,0.1431,0.1428,0.1403,0.1407,0.1411,0.135,0,0,0,0,0]},{"header":{"parameterUnit":"m.s-1","parameterCategory":2,"la1":30.2991,"la2":30.254,"lo1":-89.0895,"lo2":-89.0444,"dy":0.0017,"dx":0.0017,"nx":28,"ny":28,"refTime":"2026-02-14T03:00:00:Z","depth":"4","parameterNumber":3,"parameterNumberName":"V-component_of_CURRENTS"},"data":[0,0,0,0,0,0,0,0,0,0,0,0,0,0,0,0,0,0,0,0,0,0,0,0,0,0,0,0,0,0,0,0,0,0,0,0,0,0,0,0,0,0,0,0,0,0,0,0,0,0,0,0,0,0,0,0,0,0,-0.0154,-0.0154,0,-0.0148,-0.0148,-0.0148,-0.0161,-0.0161,-0.0162,-0.0163,-0.0171,-0.0171,-0.0171,0,0,0,0,0,0,0,0,0,0,0,0,0,-0.0139,-0.0139,-0.0154,-0.0154,-0.0154,-0.0148,-0.0148,-0.0148,-0.0161,-0.0161,-0.0162,-0.0163,-0.0171,-0.0171,-0.0171,0,0,0,0,0,0,0,0,0,0,0,0,0,-0.0139,-0.0139,-0.0154,-0.0161,-0.0161,-0.0148,-0.0148,-0.0148,-0.0161,-0.0162,-0.0162,-0.0163,-0.0171,-0.0171,-0.0171,-0.0152,0,0,-0.0169,-0.0169,0,0,0,0,0,0,0,0,-0.0139,-0.014,-0.016,-0.016,-0.0161,-0.0157,-0.0146,-0.015,-0.016,-0.016,-0.0163,-0.0163,-0.0168,-0.0168,-0.0163,-0.0152,-0.0153,-0.0169,-0.0169,-0.0169,-0.0169,0,0,0,0,0,0,0,-0.0139,-0.014,-0.015,-0.016,-0.0161,-0.0152,-0.0153,-0.0147,-0.0159,-0.016,-0.0161,-0.0162,-0.0169,-0.0163,-0.0163,-0.0153,-0.0169,-0.0169,-0.0169,-0.0169,-0.013,-0.013,0,0,0,0,0,0,-0.0144,-0.014,-0.0151,-0.015,-0.0154,-0.0152,-0.0153,-0.0157,-0.0158,-0.016,-0.0162,-0.0163,-0.0164,-0.0164,-0.0164,-0.014,-0.0169,-0.0169,-0.0168,-0.0131,-0.013,-0.0129,0,0,0,0,0,0,-0.0144,-0.0145,-0.0151,-0.0146,-0.0146,-0.0151,-0.0155,-0.0156,-0.0157,-0.016,-0.0161,-0.0163,-0.0164,-0.0164,-0.0154,-0.0141,-0.0168,-0.0168,-0.0132,-0.0131,-0.013,-0.0094,0,0,0,0,0,0,-0.0143,-0.0145,-0.0148,-0.0146,-0.0147,-0.014,-0.0155,-0.0155,-0.0157,-0.0159,-0.0161,-0.0162,-0.0165,-0.0155,-0.0154,-0.0141,-0.0168,-0.0133,-0.0131,-0.013,-0.0096,-0.0091,-0.0088,0,0,0,0,0,-0.0143,-0.0139,-0.0149,-0.015,-0.0152,-0.014,-0.0139,-0.0144,-0.0156,-0.0149,-0.0151,-0.0163,-0.0145,-0.0154,-0.0153,-0.0139,-0.0134,-0.0132,-0.013,-0.0098,-0.0092,-0.0088,0,0,0,0,0,0,-0.0131,-0.0141,-0.0151,-0.0151,-0.0147,-0.0143,-0.0139,-0.0144,-0.0139,-0.0144,-0.0151,-0.0151,-0.0138,-0.0142,-0.0151,-0.0124,-0.0142,-0.014,-0.0118,-0.0113,-0.0109,-0.01,-0.0167,0,0,0,0,0,-0.0131,-0.0135,-0.0138,-0.0138,-0.0137,-0.014,-0.0137,-0.014,-0.0137,-0.0136,-0.0136,-0.0135,-0.0128,-0.0124,-0.0119,-0.0102,-0.013,-0.0093,-0.0089,-0.0085,-0.0078,-0.0109,-0.0107,-0.0124,-0.0124,-0.0124,0,0,-0.0126,-0.0133,-0.0134,-0.0136,-0.0136,-0.0117,-0.014,-0.0134,-0.0114,-0.0137,-0.0113,-0.0122,-0.0121,-0.0101,-0.0096,-0.0104,-0.0098,-0.0083,-0.008,-0.0074,-0.0107,-0.0105,-0.0104,-0.0122,-0.0123,-0.0123,0,0,-0.0106,-0.0124,-0.0116,-0.0109,-0.011,-0.0106,-0.0105,-0.01,-0.0098,-0.0079,-0.0089,-0.0089,-0.0076,-0.0071,-0.0067,-0.0037,-0.0077,-0.0038,-0.0008,-0.0038,-0.0037,-0.0037,-0.0085,-0.009,-0.0034,-0.0034,-0.0034,0,-0.0099,-0.0089,-0.0109,-0.0092,-0.0079,-0.0098,-0.0071,-0.0066,-0.0057,-0.005,-0.0067,-0.0055,-0.0058,-0.0034,-0.0023,-0.0027,-0.0061,-0.0027,-0.0034,-0.0034,-0.0034,-0.0084,-0.0089,-0.0032,-0.0032,-0.0033,-0.0033,0,-0.0067,-0.0057,-0.0048,-0.0035,-0.0023,-0.0004,0.0001,0.001,0.0004,0.0005,0.0015,0.0005,0.0007,0.0009,0.0005,0.001,-0.0021,-0.0029,-0.0049,-0.003,-0.0084,-0.009,-0.0029,-0.003,-0.0031,-0.0031,0,0,-0.0051,-0.003,-0.0026,-0.0005,0.001,0.0027,0.0055,0.0077,0.0087,0.0083,0.0094,0.0103,0.0073,0.0076,0.006,0.0043,0.0007,0.001,0.0008,-0.0043,-0.008,-0.0085,-0.0093,-0.0009,-0.0009,-0.0009,-0.0123,0,-0.0016,0.0029,0.0031,0.0084,0.0111,0.0109,0.014,0.0152,0.0145,0.0147,0.0125,0.0124,0.0106,0.0095,0.0076,0.0023,-0.0004,0.0038,-0.0086,-0.0089,-0.01,-0.0098,-0.001,-0.0128,-0.0129,-0.013,-0.0131,0,0.002,0.0047,0.0101,0.0146,0.0157,0.0184,0.0215,0.0237,0.0229,0.0219,0.0201,0.0168,0.0145,0.0119,0.0036,0.0058,-0.0003,-0.0047,-0.0053,-0.0071,-0.0105,-0.0146,-0.0142,-0.0141,-0.0141,-0.014,-0.0139,0,0.0047,0.0098,0.0144,0.0161,0.0205,0.0228,0.0248,0.0256,0.0269,0.025,0.0236,0.0199,0.016,0.0095,-0.0001,0.001,-0.011,-0.011,-0.0174,-0.0177,-0.0156,-0.0155,-0.0169,-0.0169,-0.0169,-0.0168,-0.0168,0,0.0087,0.0124,0.0159,0.0185,0.0238,0.0255,0.0294,0.0302,0.0301,0.0306,0.0265,0.0243,0.0151,0.007,-0.0005,-0.0116,-0.0122,-0.017,-0.02,-0.014,-0.0136,-0.0162,-0.0159,-0.0173,-0.0172,-0.0171,-0.017,0,0.0109,0.0133,0.0186,0.0234,0.0251,0.0284,0.0323,0.0338,0.0335,0.0331,0.0322,0.0257,0.015,0.0049,-0.008,-0.0131,-0.0228,-0.0266,-0.0214,-0.024,-0.0276,-0.027,-0.0344,-0.0345,-0.0346,-0.0346,-0.0347,0,0.0125,0.0153,0.0212,0.0236,0.0257,0.0303,0.0328,0.0351,0.0359,0.0339,0.0329,0.0234,0.0176,-0.001,-0.0113,-0.027,-0.028,-0.0335,-0.0276,-0.0269,-0.0291,-0.0284,-0.0278,-0.0348,-0.0348,-0.0349,-0.0349,0,0.0146,0.016,0.0197,0.0243,0.0277,0.0323,0.0355,0.037,0.0381,0.0379,0.0333,0.0246,0.0119,-0.0012,-0.0145,-0.0247,-0.0296,-0.0344,-0.0342,-0.0287,-0.0275,-0.0295,-0.0288,-0.0352,-0.0351,-0.0351,-0.0351,0,0.0146,0.0167,0.0199,0.0243,0.0282,0.0318,0.0351,0.0361,0.0377,0.0362,0.0341,0.0227,0.0159,-0.0003,-0.012,-0.0228,-0.0239,-0.025,-0.0253,-0.0251,-0.0178,-0.0147,-0.021,0,0,0,0,0,0.0139,0.0155,0.0193,0.0238,0.0277,0.0303,0.035,0.0376,0.0392,0.0366,0.0361,0.0253,0.0089,0.0015,-0.0094,-0.0143,-0.0269,-0.0273,-0.0286,-0.0368,-0.0365,-0.0293,0,0,0,0,0,0,0.0128,0.0156,0.0182,0.0217,0.0247,0.0291,0.0325,0.0347,0.034,0.0344,0.0257,0.0231,0.0064,0.0143,-0.0098,-0.0132,-0.0151,-0.0348,-0.035,-0.037,-0.0367,-0.0364,-0.029,0,0,0,0,0]}]]